Location: Burbank
(38.7788°N, 114.0429°W)
Time: 20:31:03
(UTC+00:00)

S-56A Canister/Altair - Pass Details

Date: 14 May 2026
Orbit: 632 x 2484 km, 38.9° (Epoch: 8 June)

Event Time Altitude Azimuth Distance (km) Brightness Sun altitude
Rises 11:03:16 0° 273° (W) 3,598 - -14.3°
Reaches altitude 10° 11:06:22 10° 255° (WSW) 2,903 - -13.8°
Exits shadow 11:09:11 17° 231° (SW) 2,615 9.6 -13.4°
Maximum altitude 11:11:11 19° 212° (SSW) 2,667 9.7 -13.1°
Drops below altitude 10° 11:17:18 10° 172° (S) 3,813 10.8 -12.1°
Sets 11:22:16 0° 157° (SSE) 5,181 11.6 -11.3°
